Weather Roundup
Issued by NWS Chicago, IL

Home | Current Version | Previous Version | Graphics & Text | Print | Product List | Glossary On
Versions: 1 2 3 4 5 6 7 8 9 10 11 12 13 14 15 16 17 18 19 20 21 22 23 24 25 26 27 28 29 30 31 32 33 34 35 36 37 38 39 40 41 42 43 44 45 46 47 48 49 50
000
NZUS59 KLOT 031521
HRRLOT

CHICAGO AREA WEATHER ROUNDUP
NATIONAL WEATHER SERVICE CHICAGO/ROMEOVILLE IL
1000 AM CDT MON AUG 03 2015

NOTE: "FAIR" INDICATES FEW OR NO CLOUDS BELOW 12,000 FEET WITH NO
SIGNIFICANT WEATHER AND/OR OBSTRUCTIONS TO VISIBILITY.

* THESE STATIONS ARE NOT UNDER NWS QUALITY CONTROL. THEY ALSO MAY NOT
  REPORT WEATHER SUCH AS PRECIPITATION OR FOG.

ILZ005-006-012>014-019>023-031600-
NORTHEAST ILLINOIS

CITY           SKY/WX    TMP DP  RH WIND       PRES   REMARKS
OHARE          MOSUNNY   75  57  53 N13       29.85R
MIDWAY         MOSUNNY   79  59  50 N9        29.85R HX  80
AURORA         SUNNY     75  61  61 N13       29.87R
LANSING*       SUNNY     78  62  58 N5        29.85R
JOLIET*        SUNNY     78  61  56 N8        29.86R
WAUKEGAN       SUNNY     73  56  54 NW8       29.85R
DUPAGE AIRPORT SUNNY     75  57  53 NW9       29.86R
WHEELING       NOT AVBL
KANKAKEE*      SUNNY     79  66  63 NW8       29.86R HX  81
MORRIS*        SUNNY     76  62  62 N3        29.85R
LEWIS AIRPORT* MOSUNNY   75  60  58 NW9       29.86R
NORTHERLY IS     N/A     76  60  57 NE8         N/A
$$

WIZ051-052-058>065-066-070>072-031600-
SOUTHEAST WISCONSIN

CITY           SKY/WX    TMP DP  RH WIND       PRES   REMARKS
MILWAUKEE      SUNNY     75  49  39 W9        29.83S
KENOSHA*       SUNNY     73  58  59 W12       29.85S
RACINE*        SUNNY     74  54  49 NW8       29.85S
BURLINGTON     SUNNY     73  48  40 NW14      29.86R
WAUKESHA       SUNNY     72  50  46 W12       29.86S
WEST BEND      SUNNY     70  52  52 W12       29.84R
$$

INZ001>003-010>013-019-020-031600-
NORTHWEST INDIANA

CITY           SKY/WX    TMP DP  RH WIND       PRES   REMARKS
GARY*          MOSUNNY   77  63  61 N9        29.85R
MICHIGAN CITY* NOT AVBL
RENSSELAER*    NOT AVBL
VALPARAISO     SUNNY     77  65  66 NW7       29.85R
$$

LMZ740>746-031600-
SOUTHERN LAKE MICHIGAN

STATION/POSITION TIME  SKY/WX   TEMP WIND        PRES    VSBY
                                AIR  DIR/SP/G
                 (UTC)          (F)  (DEG/KT/KT) (MB)    (MI)
HARRISON CRIB    1500            70  340/ 11/ 12   N/A
BURNHAM HARBOR   1500            76  330/  7/ 13   N/A
CALUMET HARBOR   1400            74  350/  7/ 10   N/A
BURNS HARBOR     1400            72  340/  9/ 10 1010.8R
MICHIGAN CITY    1500            72  290/ 11/ 13   N/A
$$

ABBREVIATIONS USED IN REMARKS
   TC - TEMPERATURE IN CELSIUS
  WCI - WIND CHILL INDEX
   HX - HEAT INDEX
  VSB - VISIBILITY
$$


USA.gov is the U.S. government's official web portal to all federal, state and local government web resources and services.